Satellite: NOAA-11
Catalog number: 19531
Epoch time:      09098.76403372
Element set:    0579
Inclination:      098.7816 deg
RA of node:       189.7918 deg
Eccentricity:    0.0011068
Arg of perigee:   310.0814 deg
Mean anomaly:     049.9387 deg
Mean motion:   14.14891308 rev/day
Decay rate:      -2.06e-06 rev/day^2
Epoch rev:           05970
Checksum:              334

Satellite: NOAA-12
Catalog number: 21263
Epoch time:      09098.97347047
Element set:    0091
Inclination:      098.7741 deg
RA of node:       107.0000 deg
Eccentricity:    0.0012561
Arg of perigee:   351.7566 deg
Mean anomaly:     008.3405 deg
Mean motion:   14.25573135 rev/day
Decay rate:        3.2e-07 rev/day^2
Epoch rev:           93053
Checksum:              278

Satellite: MET-3/5
Catalog number: 21655
Epoch time:      09098.94137621
Element set:    0606
Inclination:      082.5477 deg
RA of node:       255.4112 deg
Eccentricity:    0.0013944
Arg of perigee:   359.2224 deg
Mean anomaly:     000.8874 deg
Mean motion:   13.17018684 rev/day
Decay rate:        5.1e-07 rev/day^2
Epoch rev:           84851
Checksum:              308

Satellite: MET-2/21
Catalog number: 22782
Epoch time:      09099.69778356
Element set:     426
Inclination:      082.5462 deg
RA of node:       236.3271 deg
Eccentricity:    0.0022453
Arg of perigee:   175.1514 deg
Mean anomaly:     184.9867 deg
Mean motion:   13.83635270 rev/day
Decay rate:        5.1e-07 rev/day^2
Epoch rev:           78813
Checksum:              332

Satellite: OKEAN-4
Catalog number: 23317
Epoch time:      09099.73590850
Element set:     876
Inclination:      082.5408 deg
RA of node:       038.3593 deg
Eccentricity:    0.0020626
Arg of perigee:   228.0421 deg
Mean anomaly:     131.9045 deg
Mean motion:   14.82686590 rev/day
Decay rate:       1.19e-06 rev/day^2
Epoch rev:           78222
Checksum:              312

Satellite: NOAA-14
Catalog number: 23455
Epoch time:      09098.88427638
Element set:    0575
Inclination:      098.9115 deg
RA of node:       176.7984 deg
Eccentricity:    0.0009738
Arg of perigee:   032.7827 deg
Mean anomaly:     327.3921 deg
Mean motion:   14.13760713 rev/day
Decay rate:       -6.9e-07 rev/day^2
Epoch rev:           73613
Checksum:              351

Satellite: NOAA-15
Catalog number: 25338
Epoch time:      09098.80891835
Element set:    0882
Inclination:      098.5817 deg
RA of node:       089.5508 deg
Eccentricity:    0.0009599
Arg of perigee:   259.3522 deg
Mean anomaly:     100.6573 deg
Mean motion:   14.24752128 rev/day
Decay rate:       -8.8e-07 rev/day^2
Epoch rev:           56689
Checksum:              366

Satellite: RESURS
Catalog number: 25394
Epoch time:      09099.73094365
Element set:     185
Inclination:      098.3497 deg
RA of node:       135.5435 deg
Eccentricity:    0.0002451
Arg of perigee:   059.5259 deg
Mean anomaly:     300.6162 deg
Mean motion:   14.24181158 rev/day
Decay rate:       -3.7e-07 rev/day^2
Epoch rev:           55865
Checksum:              317

Satellite: FENGYUN1
Catalog number: 25730
Epoch time:      09098.92313182
Element set:    0731
Inclination:      098.7520 deg
RA of node:       071.1687 deg
Eccentricity:    0.0023117
Arg of perigee:   055.8779 deg
Mean anomaly:     304.4579 deg
Mean motion:   14.07958979 rev/day
Decay rate:       1.11e-06 rev/day^2
Epoch rev:           51057
Checksum:              321

Satellite: OKEAN-0
Catalog number: 25860
Epoch time:      09098.77410203
Element set:    0646
Inclination:      097.7816 deg
RA of node:       082.7339 deg
Eccentricity:    0.0001809
Arg of perigee:   064.8365 deg
Mean anomaly:     295.3023 deg
Mean motion:   14.73566473 rev/day
Decay rate:        4.6e-07 rev/day^2
Epoch rev:           52292
Checksum:              318

Satellite: NOAA-16
Catalog number: 26536
Epoch time:      09098.80361762
Element set:    0358
Inclination:      099.1765 deg
RA of node:       100.7933 deg
Eccentricity:    0.0011340
Arg of perigee:   114.3374 deg
Mean anomaly:     245.8971 deg
Mean motion:   14.12513174 rev/day
Decay rate:      -2.93e-06 rev/day^2
Epoch rev:           44050
Checksum:              299

Satellite: NOAA-17
Catalog number: 27453
Epoch time:      09098.86308371
Element set:    0367
Inclination:      098.4910 deg
RA of node:       160.3004 deg
Eccentricity:    0.0011050
Arg of perigee:   330.3913 deg
Mean anomaly:     029.6638 deg
Mean motion:   14.24052658 rev/day
Decay rate:      -1.20e-06 rev/day^2
Epoch rev:           35288
Checksum:              292

Satellite: NOAA-18
Catalog number: 28654
Epoch time:      09098.92131397
Element set:    0858
Inclination:      098.9020 deg
RA of node:       042.7147 deg
Eccentricity:    0.0013947
Arg of perigee:   195.2050 deg
Mean anomaly:     164.8717 deg
Mean motion:   14.11245643 rev/day
Decay rate:      -1.92e-06 rev/day^2
Epoch rev:           20018
Checksum:              314

